Погода в Зарандже

Афганистан     30°57′34″N   61°51′38″E
темп.,
°C
ветер,
м/с
пор.,
м/с
влажн.,
%
обл.,
%
осадки,
мм/ч
давл.,
гПа
погр.,
м
23 апреля, пт
пт2301:30+24ссз1523120 0.0 1009437
04:30+21ссз1220110 0.0 1010427
07:30+21ссз1016100 0.0 1012517
10:30+28ссз91150 0.0 1012891
13:30+33ссз7830 0.0 10091413
16:30+35ссз7830 0.0 10071800
19:30+30ссз5850 0.0 100894
22:30+26сз6990 0.0 1008111
24 апреля, сб
сб2401:30+24сз713120 0.0 1008224
04:30+23сз915120 0.0 1008323
07:30+24ссз1014110 0.0 1010538
10:30+30ссз7865 0.0 1010935
13:30+34ссз5540 0.0 10081449
16:30+36ссз4530 0.0 10061768
19:30+31ссз81475 0.0 1007241
22:30+27ссз1015122 0.0 1009299
25 апреля, вс
вс2501:30+25ссз915162 0.0 1010316
04:30+23ссз813180 0.0 1010288
07:30+24сз9121677 0.0 1012530
10:30+30ссз8895 0.0 1012928
13:30+35ссз6765 0.0 10091342
16:30+36сз7767 0.0 10071823
19:30+32ссз46974 0.0 100756
22:30+29ссз5812100 0.0 1009108
26 апреля, пн
пн2601:30+27ссз814195 0.0 1009254
04:30+25ссз915212 0.0 1009283
07:30+26сз812177 0.0 1010436
10:30+33ссз89115 0.0 1010952
13:30+37сз76856 0.0 10072146
16:30+37ссз66841 0.0 10052162
19:30+33сз44112 0.0 100522
22:30+30сз33121 0.0 100712
27 апреля, вт
вт2701:30+27сз33160 0.0 100720
04:30+25ссз46163 0.0 100764
07:30+27ссз48140 0.0 1009227
10:30+34ссз4480 0.0 1009788
13:30+38сз4480 0.0 10061925
16:30+39с4480 0.0 10041622
19:30+34св2291 0.0 100511
22:30+32ссз44115 0.0 100625